Starlink 4193

operational
NORAD ID: 52875 Int'l Des: 2022-062 Owner: SPXS Country: US Constellation: starlink
LEOCIRCULAR

关于 Starlink 4193

正在加载描述...

实时位置

正在加载3D地球...

即将过境

高度历史

Altitude vs Time

uPlot chart will show altitude changes over time

两行轨道根数

1 52875U 22062AX 25308.02829793 .00000008 00000-0 18579-4 0 9999
2 52875 53.2161 218.2377 0001183 85.8381 274.2746 15.08834644187093
Epoch: Nov 4, 2025 • Age: 9 hours

当前状态

高度 559.1 km
速度 7.58 km/s
星下点 -53.28°S, 60.42°W
发射日期 Jun 17, 2022
运行时间 3.3 years
类型 internet

技术详情

分类 Payload
质量 297.00 kg
干质量 275.00 kg
总质量 297.00 kg
长度 0.20 m
直径 2.80 m
跨度 9.00 m
形状 Box + pan
制造商 SPXS
平台类型 Starlink
阶段状态 In Orbit
所有者/国家 SPXS/US

大型星座

Loading constellations...